Weather History for KUIN - November, 2013

Change the Weather History Date:

Monday, November 18, 2013

  Actual Average Record
Temperature  
Mean Temperature 43 °F 41 °F  
Max Temperature 51 °F 50 °F 74 °F (1953)
Min Temperature 34 °F 33 °F 7 °F (1903)
Degree Days  
Heating Degree Days 22 24  
Month to date heating degree days 354 353  
Since 1 July heating degree days 727 777  
Cooling Degree Days 0 0  
Month to date cooling degree days 0 0  
Year to date cooling degree days 1242 1093  
Moisture  
Dew Point 31 °F    
Average Humidity 65    
Maximum Humidity 89    
Minimum Humidity 41    
Precipitation  
Precipitation 0.00 in 0.10 in 3.47 in (1985)
Month to date precipitation 1.02 1.84  
Year to date precipitation 33.76 33.90  
Sea Level Pressure  
Sea Level Pressure 30.18 in    
Wind  
Wind Speed 9 mph (NW)    
Max Wind Speed 22 mph    
Max Gust Speed 28 mph    
Visibility 10 miles    
Events      
T = Trace of Precipitation, MM = Missing Value Source: NWS Daily Summary

Daily Weather History Graph

Daily Weather History Graph

Search for Another Location

Airport or City:

Trip Planner

Search our weather history database for the weather conditions in past years. The results will help you decide how hot, cold, wet, or windy it might be!

Date:

Astronomy

Nov. 18, 2013 Rise Set
Actual Time 6:53 AM CST 4:46 PM CST
Civil Twilight 6:24 AM CST 5:15 PM CST
Nautical Twilight 5:51 AM CST 5:48 PM CST
Astronomical Twilight 5:19 AM CST 6:20 PM CST
Moon 5:48 PM CST (11/18) 7:42 AM CST (11/18)
Length of Visible Light 10h 51m
Length of Day
9h 52m
Full, 99% of the Moon is Illuminated
Nov 18
Full
Nov 25
Last Quarter
Dec 2
New
Dec 9
First Quarter
Dec 17
Full

Hourly Weather History & Observations

Time (CST) Temp. Windchill Dew Point Humidity Pressure Visibility Wind Dir Wind Speed Gust Speed Precip Events Conditions
12:54 AM 43.0 °F 38.2 °F 37.9 °F 82% 29.99 in 10.0 mi West 8.1 mph - N/A   Clear
1:54 AM 42.1 °F 37.7 °F 37.0 °F 82% 30.00 in 10.0 mi West 6.9 mph - N/A   Clear
2:54 AM 39.9 °F 35.1 °F 36.0 °F 86% 30.01 in 10.0 mi West 6.9 mph - N/A   Clear
3:54 AM 41.0 °F 35.8 °F 36.0 °F 82% 30.02 in 10.0 mi West 8.1 mph - N/A   Clear
4:54 AM 41.0 °F 35.2 °F 35.1 °F 79% 30.04 in 10.0 mi West 9.2 mph - N/A   Clear
5:54 AM 39.9 °F 32.1 °F 34.0 °F 79% 30.06 in 10.0 mi West 13.8 mph - N/A   Clear
6:54 AM 37.9 °F 30.5 °F 33.1 °F 83% 30.09 in 10.0 mi West 11.5 mph - N/A   Clear
7:54 AM 39.0 °F 34.0 °F 34.0 °F 82% 30.13 in 10.0 mi WSW 6.9 mph - N/A   Clear
8:54 AM 41.0 °F 34.3 °F 34.0 °F 76% 30.17 in 10.0 mi West 11.5 mph - N/A   Clear
9:54 AM 43.0 °F 35.7 °F 33.1 °F 68% 30.21 in 10.0 mi WNW 15.0 mph - N/A   Clear
10:54 AM 46.0 °F 38.8 °F 33.1 °F 61% 30.22 in 10.0 mi WNW 18.4 mph - N/A   Clear
11:54 AM 48.0 °F - 32.0 °F 54% 30.21 in 10.0 mi West 16.1 mph - N/A   Clear
12:54 PM 50.0 °F - 30.9 °F 48% 30.20 in 10.0 mi WNW 16.1 mph - N/A   Clear
1:54 PM 51.1 °F - 28.9 °F 43% 30.20 in 10.0 mi NW 17.3 mph - N/A   Clear
2:54 PM 51.1 °F - 28.9 °F 43% 30.22 in 10.0 mi NW 12.7 mph - N/A   Clear
3:54 PM 48.9 °F - 28.0 °F 44% 30.23 in 10.0 mi WNW 13.8 mph - N/A   Clear
4:54 PM 44.1 °F 41.5 °F 28.9 °F 55% 30.25 in 10.0 mi NW 4.6 mph - N/A   Clear
5:54 PM 42.1 °F 37.7 °F 28.0 °F 58% 30.26 in 10.0 mi NNW 6.9 mph - N/A   Clear
6:54 PM 37.0 °F 31.0 °F 26.1 °F 65% 30.27 in 10.0 mi NNE 8.1 mph - N/A   Clear
7:54 PM 39.9 °F 37.8 °F 26.1 °F 58% 30.29 in 10.0 mi NE 3.5 mph - N/A   Clear
8:54 PM 36.0 °F - 26.1 °F 67% 30.29 in 10.0 mi Calm Calm - N/A   Clear
9:54 PM 39.0 °F 35.7 °F 25.0 °F 57% 30.30 in 10.0 mi NNE 4.6 mph - N/A   Clear
10:54 PM 36.0 °F 33.3 °F 25.0 °F 64% 30.30 in 10.0 mi North 3.5 mph - N/A   Clear
11:54 PM 36.0 °F 33.3 °F 25.0 °F 64% 30.31 in 10.0 mi NE 3.5 mph - N/A   Clear